Time,TemperatureF,DewpointF,PressureIn,WindDirection,WindDirectionDegrees,WindSpeedMPH,WindSpeedGustMPH,Humidity,HourlyPrecipIn,Conditions,Clouds,dailyrainin,SoftwareType,DateUTC
2013-03-15 00:03:00,33.5,11.8,30.20,West,278,0.0,2.0,40,0.00,,---,0.00,VWS V14.01,2013-03-15 04:03:00,
2013-03-15 00:08:00,33.5,12.9,30.20,West,278,1.0,2.0,42,0.00,,---,0.00,VWS V14.01,2013-03-15 04:08:00,
2013-03-15 00:13:00,33.5,12.9,30.20,West,265,0.0,0.0,42,0.00,,---,0.00,VWS V14.01,2013-03-15 04:13:00,
2013-03-15 00:18:00,33.4,12.8,30.17,WNW,293,0.0,2.0,42,0.00,,---,0.00,VWS V14.01,2013-03-15 04:18:00,
2013-03-15 00:23:00,33.4,12.2,30.17,WNW,293,0.0,0.0,41,0.00,,---,0.00,VWS V14.01,2013-03-15 04:23:00,
2013-03-15 00:28:00,33.2,12.1,30.17,WNW,293,0.0,0.0,41,0.00,,---,0.00,VWS V14.01,2013-03-15 04:28:00,
2013-03-15 00:33:00,32.9,12.3,30.18,NNW,338,0.0,2.0,42,0.00,,---,0.00,VWS V14.01,2013-03-15 04:33:00,
2013-03-15 00:38:00,32.8,13.3,30.18,NNW,338,0.0,2.0,44,0.00,,---,0.00,VWS V14.01,2013-03-15 04:38:00,
2013-03-15 00:43:00,32.8,11.1,30.18,South,182,0.0,0.0,40,0.00,,---,0.00,VWS V14.01,2013-03-15 04:43:00,
2013-03-15 00:48:00,33.1,11.4,30.18,North,358,6.0,11.0,40,0.00,,---,0.00,VWS V14.01,2013-03-15 04:48:00,
2013-03-15 00:53:00,33.2,11.5,30.18,WNW,285,8.0,11.0,40,0.00,,---,0.00,VWS V14.01,2013-03-15 04:53:00,
2013-03-15 00:58:00,33.5,11.8,30.18,West,268,1.0,11.0,40,0.00,,---,0.00,VWS V14.01,2013-03-15 04:58:00,
2013-03-15 01:03:00,33.8,10.9,30.17,NNW,331,5.0,5.0,38,0.00,,---,0.00,VWS V14.01,2013-03-15 05:03:00,
2013-03-15 01:08:00,34.1,11.2,30.17,West,262,3.0,8.0,38,0.00,,---,0.00,VWS V14.01,2013-03-15 05:08:00,
2013-03-15 01:13:00,34.3,11.9,30.17,WNW,292,0.0,1.0,39,0.00,,---,0.00,VWS V14.01,2013-03-15 05:13:00,
2013-03-15 01:18:00,34.4,12.6,30.17,WNW,292,0.0,1.0,40,0.00,,---,0.00,VWS V14.01,2013-03-15 05:18:00,
2013-03-15 01:23:00,34.4,12.6,30.17,SW,216,0.0,4.0,40,0.00,,---,0.00,VWS V14.01,2013-03-15 05:23:00,
2013-03-15 01:28:00,34.4,13.1,30.17,West,259,0.0,6.0,41,0.00,,---,0.00,VWS V14.01,2013-03-15 05:28:00,
2013-03-15 01:33:00,34.4,13.1,30.16,SW,226,0.0,0.0,41,0.00,,---,0.00,VWS V14.01,2013-03-15 05:33:00,
2013-03-15 01:38:00,34.4,13.1,30.16,SSW,202,0.0,6.0,41,0.00,,---,0.00,VWS V14.01,2013-03-15 05:38:00,
2013-03-15 01:43:00,34.4,14.2,30.16,WSW,258,0.0,0.0,43,0.00,,---,0.00,VWS V14.01,2013-03-15 05:43:00,
2013-03-15 01:48:00,34.4,14.2,30.15,West,274,0.0,2.0,43,0.00,,---,0.00,VWS V14.01,2013-03-15 05:48:00,
2013-03-15 01:53:00,34.6,14.4,30.15,NW,312,2.0,3.0,43,0.00,,---,0.00,VWS V14.01,2013-03-15 05:53:00,
2013-03-15 01:58:00,34.7,14.5,30.15,SSE,161,0.0,3.0,43,0.00,,---,0.00,VWS V14.01,2013-03-15 05:58:00,
2013-03-15 02:03:00,34.7,15.6,30.15,SW,233,0.0,5.0,45,0.00,,---,0.00,VWS V14.01,2013-03-15 06:03:00,
2013-03-15 02:08:00,34.7,15.6,30.15,SSW,211,0.0,6.0,45,0.00,,---,0.00,VWS V14.01,2013-03-15 06:08:00,
2013-03-15 02:13:00,34.6,15.5,30.15,SSW,211,0.0,0.0,45,0.00,,---,0.00,VWS V14.01,2013-03-15 06:13:00,
2013-03-15 02:18:00,34.6,16.0,30.14,NE,56,0.0,3.0,46,0.00,,---,0.00,VWS V14.01,2013-03-15 06:18:00,
2013-03-15 02:23:00,34.4,16.3,30.14,NE,56,0.0,0.0,47,0.00,,---,0.00,VWS V14.01,2013-03-15 06:23:00,
2013-03-15 02:28:00,34.3,16.2,30.14,NE,56,0.0,0.0,47,0.00,,---,0.00,VWS V14.01,2013-03-15 06:28:00,
2013-03-15 02:33:00,34.1,16.0,30.14,NE,56,0.0,0.0,47,0.00,,---,0.00,VWS V14.01,2013-03-15 06:33:00,
2013-03-15 02:38:00,34.0,15.9,30.14,NE,56,0.0,0.0,47,0.00,,---,0.00,VWS V14.01,2013-03-15 06:38:00,
2013-03-15 02:43:00,33.8,15.7,30.14,NE,56,0.0,0.0,47,0.00,,---,0.00,VWS V14.01,2013-03-15 06:43:00,
2013-03-15 02:48:00,33.7,15.6,30.14,NE,52,0.0,0.0,47,0.00,,---,0.00,VWS V14.01,2013-03-15 06:48:00,
2013-03-15 02:53:00,33.5,15.4,30.14,NE,56,0.0,0.0,47,0.00,,---,0.00,VWS V14.01,2013-03-15 06:53:00,
2013-03-15 02:58:00,33.7,19.3,30.14,WNW,295,0.0,7.0,55,0.00,,---,0.00,VWS V14.01,2013-03-15 06:58:00,
2013-03-15 03:03:00,33.8,20.2,30.14,WNW,283,0.0,0.0,57,0.00,,---,0.00,VWS V14.01,2013-03-15 07:03:00,
2013-03-15 03:08:00,34.1,20.9,30.14,West,264,7.0,11.0,58,0.00,,---,0.00,VWS V14.01,2013-03-15 07:08:00,
2013-03-15 03:13:00,34.6,21.8,30.14,WNW,286,0.0,4.0,59,0.00,,---,0.00,VWS V14.01,2013-03-15 07:13:00,
2013-03-15 03:18:00,34.9,22.4,30.12,West,281,7.0,11.0,60,0.00,,---,0.00,VWS V14.01,2013-03-15 07:18:00,
2013-03-15 03:23:00,35.3,22.8,30.12,West,269,10.0,10.0,60,0.00,,---,0.00,VWS V14.01,2013-03-15 07:23:00,
2013-03-15 03:28:00,35.5,23.0,30.12,WNW,285,2.0,10.0,60,0.00,,---,0.00,VWS V14.01,2013-03-15 07:28:00,
2013-03-15 03:33:00,35.6,23.9,30.11,WNW,285,0.0,7.0,62,0.00,,---,0.00,VWS V14.01,2013-03-15 07:33:00,
2013-03-15 03:38:00,35.9,24.9,30.11,West,281,9.0,12.0,64,0.00,,---,0.00,VWS V14.01,2013-03-15 07:38:00,
2013-03-15 03:43:00,36.0,25.0,30.11,WNW,283,3.0,11.0,64,0.00,,---,0.00,VWS V14.01,2013-03-15 07:43:00,
2013-03-15 03:48:00,36.0,25.4,30.10,NW,324,0.0,11.0,65,0.00,,---,0.00,VWS V14.01,2013-03-15 07:48:00,
2013-03-15 03:53:00,36.2,25.6,30.10,West,266,7.0,7.0,65,0.00,,---,0.00,VWS V14.01,2013-03-15 07:53:00,
2013-03-15 03:58:00,36.2,26.0,30.10,WSW,250,3.0,8.0,66,0.00,,---,0.00,VWS V14.01,2013-03-15 07:58:00,
2013-03-15 04:03:00,36.3,26.0,30.10,West,275,0.0,11.0,66,0.00,,---,0.00,VWS V14.01,2013-03-15 08:03:00,
2013-03-15 04:08:00,36.5,26.6,30.10,NW,305,5.0,11.0,67,0.00,,---,0.00,VWS V14.01,2013-03-15 08:08:00,
2013-03-15 04:13:00,36.6,27.0,30.10,WNW,290,2.0,7.0,68,0.00,,---,0.00,VWS V14.01,2013-03-15 08:13:00,
2013-03-15 04:18:00,36.8,27.6,30.11,WNW,299,7.0,12.0,69,0.00,,---,0.00,VWS V14.01,2013-03-15 08:18:00,
2013-03-15 04:23:00,37.0,27.4,30.11,WNW,296,3.0,4.0,68,0.00,,---,0.00,VWS V14.01,2013-03-15 08:23:00,
2013-03-15 04:28:00,37.0,27.8,30.11,WNW,290,1.0,12.0,69,0.00,,---,0.00,VWS V14.01,2013-03-15 08:28:00,
2013-03-15 04:33:00,37.2,28.0,30.10,WNW,296,6.0,6.0,69,0.00,,---,0.00,VWS V14.01,2013-03-15 08:33:00,
2013-03-15 04:38:00,37.0,27.8,30.10,West,272,7.0,14.0,69,0.00,,---,0.00,VWS V14.01,2013-03-15 08:38:00,
2013-03-15 04:43:00,37.2,28.3,30.10,NNW,341,2.0,11.0,70,0.00,,---,0.00,VWS V14.01,2013-03-15 08:43:00,
2013-03-15 04:48:00,37.0,28.1,30.11,WNW,295,7.0,13.0,70,0.00,,---,0.00,VWS V14.01,2013-03-15 08:48:00,
2013-03-15 04:53:00,37.0,28.1,30.11,NNW,348,13.0,13.0,70,0.00,,---,0.00,VWS V14.01,2013-03-15 08:53:00,
2013-03-15 04:58:00,37.2,28.3,30.11,NE,34,3.0,13.0,70,0.00,,---,0.00,VWS V14.01,2013-03-15 08:58:00,
2013-03-15 05:03:00,37.0,28.1,30.11,West,271,5.0,7.0,70,0.00,,---,0.00,VWS V14.01,2013-03-15 09:03:00,
2013-03-15 05:08:00,37.2,28.3,30.11,NNW,327,2.0,11.0,70,0.00,,---,0.00,VWS V14.01,2013-03-15 09:08:00,
2013-03-15 05:13:00,37.2,28.3,30.11,WNW,300,10.0,12.0,70,0.00,,---,0.00,VWS V14.01,2013-03-15 09:13:00,
2013-03-15 05:18:00,37.2,28.7,30.11,WNW,286,4.0,12.0,71,0.00,,---,0.00,VWS V14.01,2013-03-15 09:18:00,
2013-03-15 05:23:00,37.3,28.8,30.11,West,278,7.0,8.0,71,0.00,,---,0.00,VWS V14.01,2013-03-15 09:23:00,
2013-03-15 05:28:00,37.5,29.3,30.11,West,259,13.0,13.0,72,0.00,,---,0.00,VWS V14.01,2013-03-15 09:28:00,
2013-03-15 05:33:00,37.6,29.4,30.11,WSW,240,6.0,8.0,72,0.00,,---,0.00,VWS V14.01,2013-03-15 09:33:00,
2013-03-15 05:38:00,37.8,29.6,30.11,WNW,303,0.0,11.0,72,0.00,,---,0.00,VWS V14.01,2013-03-15 09:38:00,
2013-03-15 05:43:00,37.9,29.7,30.11,West,268,3.0,5.0,72,0.00,,---,0.00,VWS V14.01,2013-03-15 09:43:00,
2013-03-15 05:48:00,38.0,29.5,30.10,NNW,331,2.0,9.0,71,0.00,,---,0.00,VWS V14.01,2013-03-15 09:48:00,
2013-03-15 05:53:00,38.2,29.6,30.10,WNW,283,2.0,7.0,71,0.00,,---,0.00,VWS V14.01,2013-03-15 09:53:00,
2013-03-15 05:58:00,38.3,29.4,30.10,WNW,295,3.0,8.0,70,0.00,,---,0.00,VWS V14.01,2013-03-15 09:58:00,
2013-03-15 06:03:00,38.5,29.2,30.10,NW,322,5.0,6.0,69,0.00,,---,0.00,VWS V14.01,2013-03-15 10:03:00,
2013-03-15 06:08:00,38.8,29.5,30.10,WNW,286,0.0,11.0,69,0.00,,---,0.00,VWS V14.01,2013-03-15 10:08:00,
2013-03-15 06:13:00,38.8,29.2,30.10,WNW,283,0.0,5.0,68,0.00,,---,0.00,VWS V14.01,2013-03-15 10:13:00,
2013-03-15 06:18:00,38.9,28.9,30.10,West,268,1.0,12.0,67,0.00,,---,0.00,VWS V14.01,2013-03-15 10:18:00,
2013-03-15 06:23:00,39.1,28.7,30.10,WNW,296,2.0,6.0,66,0.00,,---,0.00,VWS V14.01,2013-03-15 10:23:00,
2013-03-15 06:28:00,39.2,28.4,30.10,WNW,286,5.0,12.0,65,0.00,,---,0.00,VWS V14.01,2013-03-15 10:28:00,
2013-03-15 06:33:00,39.3,28.5,30.11,WSW,254,0.0,0.0,65,0.00,,---,0.00,VWS V14.01,2013-03-15 10:33:00,
2013-03-15 06:38:00,39.3,28.2,30.11,WNW,293,0.0,6.0,64,0.00,,---,0.00,VWS V14.01,2013-03-15 10:38:00,
2013-03-15 06:43:00,39.3,27.8,30.11,WNW,293,0.0,3.0,63,0.00,,---,0.00,VWS V14.01,2013-03-15 10:43:00,
2013-03-15 06:48:00,39.5,28.0,30.11,WNW,289,0.0,3.0,63,0.00,,---,0.00,VWS V14.01,2013-03-15 10:48:00,
2013-03-15 06:53:00,39.5,28.0,30.11,West,278,0.0,8.0,63,0.00,,---,0.00,VWS V14.01,2013-03-15 10:53:00,
2013-03-15 06:58:00,39.5,27.6,30.11,West,266,3.0,11.0,62,0.00,,---,0.00,VWS V14.01,2013-03-15 10:58:00,
2013-03-15 07:03:00,39.6,27.7,30.11,West,275,4.0,4.0,62,0.00,,---,0.00,VWS V14.01,2013-03-15 11:03:00,
2013-03-15 07:08:00,39.6,27.3,30.11,NNW,344,3.0,9.0,61,0.00,,---,0.00,VWS V14.01,2013-03-15 11:08:00,
2013-03-15 07:13:00,39.6,27.3,30.11,WNW,288,3.0,5.0,61,0.00,,---,0.00,VWS V14.01,2013-03-15 11:13:00,
2013-03-15 07:18:00,39.8,27.5,30.12,WNW,286,0.0,5.0,61,0.00,,---,0.00,VWS V14.01,2013-03-15 11:18:00,
2013-03-15 07:23:00,39.8,27.1,30.12,West,262,0.0,3.0,60,0.00,,---,0.00,VWS V14.01,2013-03-15 11:23:00,
2013-03-15 07:28:00,39.8,27.1,30.12,West,262,2.0,7.0,60,0.00,,---,0.00,VWS V14.01,2013-03-15 11:28:00,
2013-03-15 07:33:00,39.6,26.9,30.12,West,262,0.0,0.0,60,0.00,,---,0.00,VWS V14.01,2013-03-15 11:33:00,
2013-03-15 07:38:00,39.3,27.0,30.12,West,262,0.0,1.0,61,0.00,,---,0.00,VWS V14.01,2013-03-15 11:38:00,
2013-03-15 07:43:00,38.9,27.0,30.12,West,262,0.0,0.0,62,0.00,,---,0.00,VWS V14.01,2013-03-15 11:43:00,
2013-03-15 07:48:00,38.3,26.4,30.14,West,262,1.0,3.0,62,0.00,,---,0.00,VWS V14.01,2013-03-15 11:48:00,
2013-03-15 07:53:00,37.5,25.3,30.14,WNW,303,0.0,0.0,61,0.00,,---,0.00,VWS V14.01,2013-03-15 11:53:00,
2013-03-15 07:58:00,36.6,24.8,30.14,WNW,303,0.0,2.0,62,0.00,,---,0.00,VWS V14.01,2013-03-15 11:58:00,
2013-03-15 08:03:00,35.8,24.5,30.16,WNW,303,0.0,0.0,63,0.00,,---,0.00,VWS V14.01,2013-03-15 12:03:00,
2013-03-15 08:08:00,35.0,24.1,30.16,WNW,303,0.0,0.0,64,0.00,,---,0.00,VWS V14.01,2013-03-15 12:08:00,
2013-03-15 08:13:00,34.6,23.7,30.16,WNW,303,0.0,0.0,64,0.00,,---,0.00,VWS V14.01,2013-03-15 12:13:00,
2013-03-15 08:18:00,34.1,23.6,30.17,WNW,303,0.0,0.0,65,0.00,,---,0.00,VWS V14.01,2013-03-15 12:18:00,
2013-03-15 08:23:00,33.7,23.6,30.17,WNW,303,0.0,0.0,66,0.00,,---,0.00,VWS V14.01,2013-03-15 12:23:00,
2013-03-15 08:28:00,33.2,23.5,30.17,WNW,303,0.0,0.0,67,0.00,,---,0.00,VWS V14.01,2013-03-15 12:28:00,
2013-03-15 08:33:00,32.9,23.2,30.17,WNW,303,0.0,0.0,67,0.00,,---,0.00,VWS V14.01,2013-03-15 12:33:00,
2013-03-15 08:38:00,32.8,23.4,30.17,WNW,303,0.0,0.0,68,0.00,,---,0.00,VWS V14.01,2013-03-15 12:38:00,
2013-03-15 08:43:00,32.7,23.3,30.17,WNW,303,0.0,0.0,68,0.00,,---,0.00,VWS V14.01,2013-03-15 12:43:00,
2013-03-15 08:48:00,32.7,23.7,30.17,WNW,303,0.0,0.0,69,0.00,,---,0.00,VWS V14.01,2013-03-15 12:48:00,
2013-03-15 08:53:00,32.7,23.7,30.17,WNW,303,0.0,0.0,69,0.00,,---,0.00,VWS V14.01,2013-03-15 12:53:00,
2013-03-15 08:58:00,32.8,23.8,30.17,WNW,303,0.0,0.0,69,0.00,,---,0.00,VWS V14.01,2013-03-15 12:58:00,
2013-03-15 09:03:00,32.9,23.9,30.17,WNW,303,0.0,0.0,69,0.00,,---,0.00,VWS V14.01,2013-03-15 13:03:00,
2013-03-15 09:08:00,33.2,24.1,30.17,WNW,303,0.0,0.0,69,0.00,,---,0.00,VWS V14.01,2013-03-15 13:08:00,
2013-03-15 09:13:00,33.5,24.4,30.17,WNW,303,0.0,0.0,69,0.00,,---,0.00,VWS V14.01,2013-03-15 13:13:00,
2013-03-15 09:18:00,34.0,24.9,30.17,WNW,303,0.0,0.0,69,0.00,,---,0.00,VWS V14.01,2013-03-15 13:18:00,
2013-03-15 09:23:00,34.4,25.0,30.17,WNW,303,0.0,0.0,68,0.00,,---,0.00,VWS V14.01,2013-03-15 13:23:00,
2013-03-15 09:28:00,35.0,25.2,30.17,WNW,303,0.0,0.0,67,0.00,,---,0.00,VWS V14.01,2013-03-15 13:28:00,
2013-03-15 09:33:00,35.5,25.3,30.17,WNW,303,0.0,0.0,66,0.00,,---,0.00,VWS V14.01,2013-03-15 13:33:00,
2013-03-15 09:38:00,35.8,25.6,30.17,WNW,303,0.0,0.0,66,0.00,,---,0.00,VWS V14.01,2013-03-15 13:38:00,
2013-03-15 09:43:00,36.2,25.6,30.17,WNW,303,0.0,0.0,65,0.00,,---,0.00,VWS V14.01,2013-03-15 13:43:00,
2013-03-15 09:48:00,36.8,26.1,30.16,WNW,303,0.0,0.0,65,0.00,,---,0.00,VWS V14.01,2013-03-15 13:48:00,
2013-03-15 09:53:00,37.5,26.8,30.16,WNW,303,0.0,0.0,65,0.00,,---,0.00,VWS V14.01,2013-03-15 13:53:00,
2013-03-15 09:58:00,37.9,26.5,30.16,WNW,303,1.0,4.0,63,0.00,,---,0.00,VWS V14.01,2013-03-15 13:58:00,
2013-03-15 10:03:00,38.3,26.4,30.15,WNW,303,0.0,2.0,62,0.00,,---,0.00,VWS V14.01,2013-03-15 14:03:00,
2013-03-15 10:08:00,38.9,27.0,30.15,WNW,303,0.0,2.0,62,0.00,,---,0.00,VWS V14.01,2013-03-15 14:08:00,
2013-03-15 10:13:00,39.3,26.6,30.15,WNW,303,0.0,0.0,60,0.00,,---,0.00,VWS V14.01,2013-03-15 14:13:00,
2013-03-15 10:18:00,39.8,26.7,30.15,WNW,303,0.0,1.0,59,0.00,,---,0.00,VWS V14.01,2013-03-15 14:18:00,
2013-03-15 10:23:00,40.2,26.6,30.15,WNW,303,0.0,0.0,58,0.00,,---,0.00,VWS V14.01,2013-03-15 14:23:00,
2013-03-15 10:28:00,40.8,27.2,30.15,WNW,303,0.0,2.0,58,0.00,,---,0.00,VWS V14.01,2013-03-15 14:28:00,
2013-03-15 10:33:00,41.3,27.6,30.14,West,276,1.0,5.0,58,0.00,,---,0.00,VWS V14.01,2013-03-15 14:33:00,
2013-03-15 10:38:00,41.9,27.4,30.14,West,279,0.0,5.0,56,0.00,,---,0.00,VWS V14.01,2013-03-15 14:38:00,
2013-03-15 10:43:00,42.2,27.2,30.14,West,276,0.0,0.0,55,0.00,,---,0.00,VWS V14.01,2013-03-15 14:43:00,
2013-03-15 10:48:00,42.6,28.0,30.13,WNW,282,2.0,6.0,56,0.00,,---,0.00,VWS V14.01,2013-03-15 14:48:00,
2013-03-15 10:53:00,43.2,27.7,30.13,West,275,0.0,3.0,54,0.00,,---,0.00,VWS V14.01,2013-03-15 14:53:00,
2013-03-15 10:58:00,43.3,27.3,30.13,West,279,0.0,6.0,53,0.00,,---,0.00,VWS V14.01,2013-03-15 14:58:00,
2013-03-15 11:03:00,44.1,28.1,30.13,West,274,2.0,6.0,53,0.00,,---,0.00,VWS V14.01,2013-03-15 15:03:00,
2013-03-15 11:08:00,44.5,28.5,30.13,WNW,288,4.0,6.0,53,0.00,,---,0.00,VWS V14.01,2013-03-15 15:08:00,
2013-03-15 11:13:00,44.8,28.3,30.13,WNW,283,3.0,6.0,52,0.00,,---,0.00,VWS V14.01,2013-03-15 15:13:00,
2013-03-15 11:18:00,45.4,28.8,30.11,West,278,5.0,6.0,52,0.00,,---,0.00,VWS V14.01,2013-03-15 15:18:00,
2013-03-15 11:23:00,45.7,29.1,30.11,WNW,283,3.0,3.0,52,0.00,,---,0.00,VWS V14.01,2013-03-15 15:23:00,
2013-03-15 11:28:00,46.2,29.1,30.11,West,275,1.0,7.0,51,0.00,,---,0.00,VWS V14.01,2013-03-15 15:28:00,
2013-03-15 11:33:00,46.7,29.1,30.10,West,266,5.0,5.0,50,0.00,,---,0.00,VWS V14.01,2013-03-15 15:33:00,
2013-03-15 11:38:00,47.1,29.4,30.10,West,275,5.0,7.0,50,0.00,,---,0.00,VWS V14.01,2013-03-15 15:38:00,
2013-03-15 11:43:00,47.3,29.1,30.10,West,275,2.0,3.0,49,0.00,,---,0.00,VWS V14.01,2013-03-15 15:43:00,
2013-03-15 11:48:00,47.6,29.4,30.10,WNW,282,2.0,7.0,49,0.00,,---,0.00,VWS V14.01,2013-03-15 15:48:00,
2013-03-15 11:53:00,48.3,29.5,30.10,WNW,289,0.0,0.0,48,0.00,,---,0.00,VWS V14.01,2013-03-15 15:53:00,
2013-03-15 11:58:00,49.2,29.9,30.10,WNW,282,3.0,4.0,47,0.00,,---,0.00,VWS V14.01,2013-03-15 15:58:00,
2013-03-15 12:03:00,49.5,30.1,30.09,WNW,295,0.0,0.0,47,0.00,,---,0.00,VWS V14.01,2013-03-15 16:03:00,
2013-03-15 12:08:00,50.4,30.4,30.09,West,274,0.0,3.0,46,0.00,,---,0.00,VWS V14.01,2013-03-15 16:08:00,
2013-03-15 12:13:00,51.0,30.4,30.09,West,271,2.0,7.0,45,0.00,,---,0.00,VWS V14.01,2013-03-15 16:13:00,
2013-03-15 12:18:00,51.6,31.0,30.07,West,269,0.0,7.0,45,0.00,,---,0.00,VWS V14.01,2013-03-15 16:18:00,
2013-03-15 12:23:00,51.6,30.4,30.07,WNW,286,0.0,0.0,44,0.00,,---,0.00,VWS V14.01,2013-03-15 16:23:00,
2013-03-15 12:28:00,51.9,30.1,30.07,WNW,286,5.0,6.0,43,0.00,,---,0.00,VWS V14.01,2013-03-15 16:28:00,
2013-03-15 12:33:00,52.0,31.3,30.06,WNW,290,1.0,6.0,45,0.00,,---,0.00,VWS V14.01,2013-03-15 16:33:00,
2013-03-15 12:38:00,52.5,31.2,30.06,WSW,257,4.0,6.0,44,0.00,,---,0.00,VWS V14.01,2013-03-15 16:38:00,
2013-03-15 12:43:00,52.8,30.9,30.06,West,281,5.0,5.0,43,0.00,,---,0.00,VWS V14.01,2013-03-15 16:43:00,
2013-03-15 12:48:00,52.9,31.0,30.05,West,281,1.0,7.0,43,0.00,,---,0.00,VWS V14.01,2013-03-15 16:48:00,
2013-03-15 12:53:00,53.1,31.8,30.05,West,279,5.0,6.0,44,0.00,,---,0.00,VWS V14.01,2013-03-15 16:53:00,
2013-03-15 12:58:00,53.3,31.4,30.05,West,281,0.0,7.0,43,0.00,,---,0.00,VWS V14.01,2013-03-15 16:58:00,
2013-03-15 13:03:00,54.2,31.6,30.04,West,266,0.0,5.0,42,0.00,,---,0.00,VWS V14.01,2013-03-15 17:03:00,
2013-03-15 13:08:00,55.0,32.3,30.04,SSW,211,6.0,6.0,42,0.00,,---,0.00,VWS V14.01,2013-03-15 17:08:00,
2013-03-15 13:13:00,55.4,31.5,30.04,West,275,0.0,6.0,40,0.00,,---,0.00,VWS V14.01,2013-03-15 17:13:00,
2013-03-15 13:18:00,55.7,32.4,30.02,West,275,0.0,6.0,41,0.00,,---,0.00,VWS V14.01,2013-03-15 17:18:00,
2013-03-15 13:23:00,56.2,32.8,30.02,WNW,296,1.0,6.0,41,0.00,,---,0.00,VWS V14.01,2013-03-15 17:23:00,
2013-03-15 13:28:00,56.5,32.5,30.02,WSW,258,2.0,6.0,40,0.00,,---,0.00,VWS V14.01,2013-03-15 17:28:00,
2013-03-15 13:33:00,57.2,33.1,30.01,West,265,2.0,6.0,40,0.00,,---,0.00,VWS V14.01,2013-03-15 17:33:00,
2013-03-15 13:38:00,57.2,33.1,30.01,WSW,251,4.0,7.0,40,0.00,,---,0.00,VWS V14.01,2013-03-15 17:38:00,
2013-03-15 13:43:00,58.0,32.6,30.01,WSW,238,2.0,6.0,38,0.00,,---,0.00,VWS V14.01,2013-03-15 17:43:00,
2013-03-15 13:48:00,58.6,32.4,30.00,West,269,2.0,6.0,37,0.00,,---,0.00,VWS V14.01,2013-03-15 17:48:00,
2013-03-15 13:53:00,59.0,32.8,30.00,WNW,300,0.0,3.0,37,0.00,,---,0.00,VWS V14.01,2013-03-15 17:53:00,
2013-03-15 13:58:00,59.6,32.6,30.00,WNW,298,7.0,7.0,36,0.00,,---,0.00,VWS V14.01,2013-03-15 17:58:00,
2013-03-15 14:03:00,59.9,32.2,29.99,West,272,4.0,5.0,35,0.00,,---,0.00,VWS V14.01,2013-03-15 18:03:00,
2013-03-15 14:08:00,60.1,32.4,29.99,West,278,3.0,8.0,35,0.00,,---,0.00,VWS V14.01,2013-03-15 18:08:00,
2013-03-15 14:13:00,60.2,33.2,29.99,WSW,250,1.0,4.0,36,0.00,,---,0.00,VWS V14.01,2013-03-15 18:13:00,
2013-03-15 14:18:00,60.5,33.4,29.98,NW,305,0.0,6.0,36,0.00,,---,0.00,VWS V14.01,2013-03-15 18:18:00,
2013-03-15 14:23:00,60.9,31.6,29.98,West,271,3.0,8.0,33,0.00,,---,0.00,VWS V14.01,2013-03-15 18:23:00,
2013-03-15 14:28:00,61.2,33.3,29.98,WSW,257,0.0,8.0,35,0.00,,---,0.00,VWS V14.01,2013-03-15 18:28:00,
2013-03-15 14:33:00,61.8,33.2,29.96,West,275,8.0,8.0,34,0.00,,---,0.00,VWS V14.01,2013-03-15 18:33:00,
2013-03-15 14:38:00,62.3,32.1,29.96,West,276,3.0,8.0,32,0.00,,---,0.00,VWS V14.01,2013-03-15 18:38:00,
2013-03-15 14:43:00,62.4,31.4,29.96,West,281,3.0,6.0,31,0.00,,---,0.00,VWS V14.01,2013-03-15 18:43:00,
2013-03-15 14:48:00,62.4,31.4,29.95,WSW,238,4.0,11.0,31,0.00,,---,0.00,VWS V14.01,2013-03-15 18:48:00,
2013-03-15 14:53:00,62.7,32.4,29.95,WNW,285,3.0,7.0,32,0.00,,---,0.00,VWS V14.01,2013-03-15 18:53:00,
2013-03-15 14:58:00,63.1,32.8,29.95,West,271,6.0,8.0,32,0.00,,---,0.00,VWS V14.01,2013-03-15 18:58:00,
2013-03-15 15:03:00,63.1,32.0,29.95,West,266,3.0,5.0,31,0.00,,---,0.00,VWS V14.01,2013-03-15 19:03:00,
2013-03-15 15:08:00,63.4,32.3,29.95,WNW,283,7.0,10.0,31,0.00,,---,0.00,VWS V14.01,2013-03-15 19:08:00,
2013-03-15 15:13:00,63.5,31.5,29.95,WSW,248,6.0,6.0,30,0.00,,---,0.00,VWS V14.01,2013-03-15 19:13:00,
2013-03-15 15:18:00,63.9,31.9,29.92,West,276,6.0,8.0,30,0.00,,---,0.00,VWS V14.01,2013-03-15 19:18:00,
2013-03-15 15:23:00,64.2,32.2,29.92,WNW,288,6.0,8.0,30,0.00,,---,0.00,VWS V14.01,2013-03-15 19:23:00,
2013-03-15 15:28:00,64.3,31.4,29.92,WNW,286,3.0,10.0,29,0.00,,---,0.00,VWS V14.01,2013-03-15 19:28:00,
2013-03-15 15:33:00,64.7,30.9,29.91,WNW,282,7.0,8.0,28,0.00,,---,0.00,VWS V14.01,2013-03-15 19:33:00,
2013-03-15 15:38:00,64.8,31.0,29.91,West,271,6.0,11.0,28,0.00,,---,0.00,VWS V14.01,2013-03-15 19:38:00,
2013-03-15 15:43:00,64.8,31.0,29.91,WNW,282,5.0,5.0,28,0.00,,---,0.00,VWS V14.01,2013-03-15 19:43:00,
2013-03-15 15:48:00,64.7,30.9,29.91,WSW,255,4.0,9.0,28,0.00,,---,0.00,VWS V14.01,2013-03-15 19:48:00,
2013-03-15 15:53:00,65.0,31.1,29.91,WNW,296,2.0,8.0,28,0.00,,---,0.00,VWS V14.01,2013-03-15 19:53:00,
2013-03-15 15:58:00,65.2,31.3,29.91,West,264,3.0,8.0,28,0.00,,---,0.00,VWS V14.01,2013-03-15 19:58:00,
2013-03-15 16:03:00,65.3,31.4,29.90,WNW,292,1.0,7.0,28,0.00,,---,0.00,VWS V14.01,2013-03-15 20:03:00,
2013-03-15 16:08:00,65.6,30.8,29.90,West,275,6.0,16.0,27,0.00,,---,0.00,VWS V14.01,2013-03-15 20:08:00,
2013-03-15 16:13:00,65.8,31.8,29.90,WSW,252,6.0,11.0,28,0.00,,---,0.00,VWS V14.01,2013-03-15 20:13:00,
2013-03-15 16:18:00,65.8,31.8,29.89,West,278,6.0,11.0,28,0.00,,---,0.00,VWS V14.01,2013-03-15 20:18:00,
2013-03-15 16:23:00,65.5,31.6,29.89,West,269,6.0,12.0,28,0.00,,---,0.00,VWS V14.01,2013-03-15 20:23:00,
2013-03-15 16:28:00,65.0,31.1,29.89,WSW,245,3.0,12.0,28,0.00,,---,0.00,VWS V14.01,2013-03-15 20:28:00,
2013-03-15 16:33:00,65.0,31.1,29.89,West,275,5.0,6.0,28,0.00,,---,0.00,VWS V14.01,2013-03-15 20:33:00,
2013-03-15 16:38:00,65.2,32.2,29.89,WSW,250,10.0,10.0,29,0.00,,---,0.00,VWS V14.01,2013-03-15 20:38:00,
2013-03-15 16:43:00,65.2,32.2,29.89,WSW,254,3.0,6.0,29,0.00,,---,0.00,VWS V14.01,2013-03-15 20:43:00,
2013-03-15 16:48:00,65.2,31.3,29.89,West,265,5.0,10.0,28,0.00,,---,0.00,VWS V14.01,2013-03-15 20:48:00,
2013-03-15 16:53:00,65.3,30.5,29.89,WSW,252,6.0,12.0,27,0.00,,---,0.00,VWS V14.01,2013-03-15 20:53:00,
2013-03-15 16:58:00,65.3,31.4,29.89,WNW,286,3.0,12.0,28,0.00,,---,0.00,VWS V14.01,2013-03-15 20:58:00,
2013-03-15 17:03:00,65.3,30.5,29.88,NNW,347,2.0,6.0,27,0.00,,---,0.00,VWS V14.01,2013-03-15 21:03:00,
2013-03-15 17:08:00,65.3,31.4,29.88,WSW,250,6.0,10.0,28,0.00,,---,0.00,VWS V14.01,2013-03-15 21:08:00,
2013-03-15 17:13:00,65.3,30.5,29.88,West,266,4.0,6.0,27,0.00,,---,0.00,VWS V14.01,2013-03-15 21:13:00,
2013-03-15 17:18:00,65.3,29.6,29.87,WNW,282,4.0,8.0,26,0.00,,---,0.00,VWS V14.01,2013-03-15 21:18:00,
2013-03-15 17:23:00,65.3,28.6,29.87,WSW,245,7.0,7.0,25,0.00,,---,0.00,VWS V14.01,2013-03-15 21:23:00,
2013-03-15 17:28:00,65.3,27.6,29.87,WNW,296,7.0,10.0,24,0.00,,---,0.00,VWS V14.01,2013-03-15 21:28:00,
2013-03-15 17:33:00,65.3,28.6,29.87,WSW,254,5.0,7.0,25,0.00,,---,0.00,VWS V14.01,2013-03-15 21:33:00,
2013-03-15 17:38:00,65.3,27.6,29.87,West,278,2.0,9.0,24,0.00,,---,0.00,VWS V14.01,2013-03-15 21:38:00,
2013-03-15 17:43:00,65.3,26.6,29.87,NW,306,5.0,17.0,23,0.00,,---,0.00,VWS V14.01,2013-03-15 21:43:00,
2013-03-15 17:48:00,65.2,26.5,29.87,WNW,303,5.0,17.0,23,0.00,,---,0.00,VWS V14.01,2013-03-15 21:48:00,
2013-03-15 17:53:00,65.0,26.3,29.87,West,272,3.0,7.0,23,0.00,,---,0.00,VWS V14.01,2013-03-15 21:53:00,
2013-03-15 17:58:00,65.0,27.4,29.87,WNW,285,18.0,18.0,24,0.00,,---,0.00,VWS V14.01,2013-03-15 21:58:00,
2013-03-15 18:03:00,64.8,27.2,29.87,West,278,8.0,11.0,24,0.00,,---,0.00,VWS V14.01,2013-03-15 22:03:00,
2013-03-15 18:08:00,64.7,27.1,29.87,West,268,8.0,13.0,24,0.00,,---,0.00,VWS V14.01,2013-03-15 22:08:00,
2013-03-15 18:14:00,64.7,28.1,29.87,WSW,255,5.0,8.0,25,0.00,,---,0.00,VWS V14.01,2013-03-15 22:14:00,
2013-03-15 18:19:00,64.3,27.8,29.87,West,278,8.0,11.0,25,0.00,,---,0.00,VWS V14.01,2013-03-15 22:19:00,
2013-03-15 18:24:00,64.0,29.4,29.87,WNW,282,3.0,3.0,27,0.00,,---,0.00,VWS V14.01,2013-03-15 22:24:00,
2013-03-15 18:29:00,63.7,29.1,29.87,WNW,286,2.0,8.0,27,0.00,,---,0.00,VWS V14.01,2013-03-15 22:29:00,
2013-03-15 18:34:00,63.5,29.8,29.87,WSW,245,2.0,4.0,28,0.00,,---,0.00,VWS V14.01,2013-03-15 22:34:00,
2013-03-15 18:38:00,63.2,29.6,29.87,WNW,286,4.0,5.0,28,0.00,,---,0.00,VWS V14.01,2013-03-15 22:38:00,
2013-03-15 18:43:00,63.1,29.5,29.87,West,276,3.0,6.0,28,0.00,,---,0.00,VWS V14.01,2013-03-15 22:43:00,
2013-03-15 18:48:00,62.7,30.0,29.87,West,272,2.0,6.0,29,0.00,,---,0.00,VWS V14.01,2013-03-15 22:48:00,
2013-03-15 18:53:00,62.4,30.6,29.87,West,276,2.0,7.0,30,0.00,,---,0.00,VWS V14.01,2013-03-15 22:53:00,
2013-03-15 18:58:00,62.1,31.1,29.87,WNW,293,1.0,7.0,31,0.00,,---,0.00,VWS V14.01,2013-03-15 22:58:00,
2013-03-15 19:03:00,62.0,31.8,29.88,West,271,1.0,5.0,32,0.00,,---,0.00,VWS V14.01,2013-03-15 23:03:00,
2013-03-15 19:08:00,61.6,31.5,29.88,West,274,0.0,5.0,32,0.00,,---,0.00,VWS V14.01,2013-03-15 23:08:00,
2013-03-15 19:13:00,61.5,32.2,29.88,West,274,4.0,5.0,33,0.00,,---,0.00,VWS V14.01,2013-03-15 23:13:00,
2013-03-15 19:18:00,61.2,32.6,29.90,West,274,0.0,5.0,34,0.00,,---,0.00,VWS V14.01,2013-03-15 23:18:00,
2013-03-15 19:23:00,61.0,32.5,29.90,West,279,0.0,0.0,34,0.00,,---,0.00,VWS V14.01,2013-03-15 23:23:00,
2013-03-15 19:28:00,60.7,32.9,29.90,West,279,0.0,3.0,35,0.00,,---,0.00,VWS V14.01,2013-03-15 23:28:00,
2013-03-15 19:33:00,60.5,32.7,29.90,WNW,282,0.0,0.0,35,0.00,,---,0.00,VWS V14.01,2013-03-15 23:33:00,
2013-03-15 19:38:00,60.2,33.2,29.90,WNW,282,0.0,1.0,36,0.00,,---,0.00,VWS V14.01,2013-03-15 23:38:00,
2013-03-15 19:43:00,60.1,33.8,29.90,WNW,282,0.0,0.0,37,0.00,,---,0.00,VWS V14.01,2013-03-15 23:43:00,
2013-03-15 19:48:00,59.8,34.2,29.90,WNW,282,0.0,0.0,38,0.00,,---,0.00,VWS V14.01,2013-03-15 23:48:00,
2013-03-15 19:53:00,59.5,34.5,29.90,WNW,282,0.0,0.0,39,0.00,,---,0.00,VWS V14.01,2013-03-15 23:53:00,
2013-03-15 19:58:00,59.2,34.9,29.90,WNW,282,0.0,5.0,40,0.00,,---,0.00,VWS V14.01,2013-03-15 23:58:00,
2013-03-15 20:03:00,58.9,34.6,29.90,WNW,289,0.0,2.0,40,0.00,,---,0.00,VWS V14.01,2013-03-16 00:03:00,
2013-03-15 20:08:00,58.6,35.0,29.90,WNW,285,1.0,5.0,41,0.00,,---,0.00,VWS V14.01,2013-03-16 00:08:00,
2013-03-15 20:13:00,58.4,34.8,29.90,WNW,285,0.0,0.0,41,0.00,,---,0.00,VWS V14.01,2013-03-16 00:13:00,
2013-03-15 20:18:00,58.3,35.3,29.92,WNW,285,0.0,4.0,42,0.00,,---,0.00,VWS V14.01,2013-03-16 00:18:00,
2013-03-15 20:23:00,58.0,35.1,29.92,WNW,285,0.0,0.0,42,0.00,,---,0.00,VWS V14.01,2013-03-16 00:23:00,
2013-03-15 20:28:00,57.6,35.3,29.92,WNW,285,0.0,0.0,43,0.00,,---,0.00,VWS V14.01,2013-03-16 00:28:00,
2013-03-15 20:33:00,57.3,35.6,29.91,WNW,285,0.0,0.0,44,0.00,,---,0.00,VWS V14.01,2013-03-16 00:33:00,
2013-03-15 20:38:00,57.0,35.3,29.91,WNW,285,0.0,0.0,44,0.00,,---,0.00,VWS V14.01,2013-03-16 00:38:00,
2013-03-15 20:43:00,56.7,35.6,29.91,WNW,285,0.0,0.0,45,0.00,,---,0.00,VWS V14.01,2013-03-16 00:43:00,
2013-03-15 20:48:00,56.3,35.2,29.92,WNW,285,0.0,0.0,45,0.00,,---,0.00,VWS V14.01,2013-03-16 00:48:00,
2013-03-15 20:53:00,56.0,35.5,29.92,WNW,285,0.0,0.0,46,0.00,,---,0.00,VWS V14.01,2013-03-16 00:53:00,
2013-03-15 20:58:00,55.7,35.8,29.92,WNW,285,0.0,0.0,47,0.00,,---,0.00,VWS V14.01,2013-03-16 00:58:00,
2013-03-15 21:03:00,55.3,36.0,29.92,WNW,285,0.0,0.0,48,0.00,,---,0.00,VWS V14.01,2013-03-16 01:03:00,
2013-03-15 21:08:00,55.0,36.2,29.92,WNW,285,0.0,0.0,49,0.00,,---,0.00,VWS V14.01,2013-03-16 01:08:00,
2013-03-15 21:13:00,54.5,36.3,29.92,WNW,285,0.0,0.0,50,0.00,,---,0.00,VWS V14.01,2013-03-16 01:13:00,
2013-03-15 21:18:00,54.2,36.0,29.92,WNW,285,0.0,0.0,50,0.00,,---,0.00,VWS V14.01,2013-03-16 01:18:00,
2013-03-15 21:23:00,53.8,36.6,29.92,WNW,285,0.0,0.0,52,0.00,,---,0.00,VWS V14.01,2013-03-16 01:23:00,
2013-03-15 21:28:00,53.3,36.1,29.92,WNW,285,0.0,0.0,52,0.00,,---,0.00,VWS V14.01,2013-03-16 01:28:00,
2013-03-15 21:33:00,52.9,36.2,29.92,WNW,285,0.0,0.0,53,0.00,,---,0.00,VWS V14.01,2013-03-16 01:33:00,
2013-03-15 21:38:00,52.5,36.3,29.92,WNW,285,0.0,0.0,54,0.00,,---,0.00,VWS V14.01,2013-03-16 01:38:00,
2013-03-15 21:43:00,52.0,36.3,29.92,WNW,285,0.0,0.0,55,0.00,,---,0.00,VWS V14.01,2013-03-16 01:43:00,
2013-03-15 21:48:00,51.7,36.5,29.92,WNW,285,0.0,0.0,56,0.00,,---,0.00,VWS V14.01,2013-03-16 01:48:00,
2013-03-15 21:53:00,51.4,36.2,29.92,WNW,285,0.0,0.0,56,0.00,,---,0.00,VWS V14.01,2013-03-16 01:53:00,
2013-03-15 21:58:00,51.1,36.8,29.92,WNW,285,0.0,0.0,58,0.00,,---,0.00,VWS V14.01,2013-03-16 01:58:00,
2013-03-15 22:03:00,50.8,36.6,29.92,WNW,285,0.0,0.0,58,0.00,,---,0.00,VWS V14.01,2013-03-16 02:03:00,
2013-03-15 22:08:00,50.7,36.5,29.92,WNW,285,0.0,0.0,58,0.00,,---,0.00,VWS V14.01,2013-03-16 02:08:00,
2013-03-15 22:13:00,50.5,36.7,29.92,WNW,285,0.0,0.0,59,0.00,,---,0.00,VWS V14.01,2013-03-16 02:13:00,
2013-03-15 22:18:00,50.4,36.6,29.91,WNW,285,0.0,0.0,59,0.00,,---,0.00,VWS V14.01,2013-03-16 02:18:00,
2013-03-15 22:23:00,50.2,36.9,29.91,WNW,285,0.0,0.0,60,0.00,,---,0.00,VWS V14.01,2013-03-16 02:23:00,
2013-03-15 22:28:00,50.1,37.2,29.91,WNW,285,0.0,0.0,61,0.00,,---,0.00,VWS V14.01,2013-03-16 02:28:00,
2013-03-15 22:33:00,49.9,37.0,29.91,WNW,285,0.0,0.0,61,0.00,,---,0.00,VWS V14.01,2013-03-16 02:33:00,
2013-03-15 22:38:00,49.8,36.9,29.91,WNW,285,0.0,0.0,61,0.00,,---,0.00,VWS V14.01,2013-03-16 02:38:00,
2013-03-15 22:43:00,49.8,37.3,29.91,WNW,285,0.0,0.0,62,0.00,,---,0.00,VWS V14.01,2013-03-16 02:43:00,
2013-03-15 22:48:00,49.8,37.3,29.91,WNW,285,0.0,0.0,62,0.00,,---,0.00,VWS V14.01,2013-03-16 02:48:00,
2013-03-15 22:53:00,49.8,37.3,29.91,WNW,285,0.0,0.0,62,0.00,,---,0.00,VWS V14.01,2013-03-16 02:53:00,
2013-03-15 22:57:00,51.4,39.2,29.88,WNW,285,0.0,5.0,63,0.00,,---,0.00,VWS V14.01,2013-03-16 02:57:00,
2013-03-15 22:58:00,49.8,37.3,29.91,WNW,285,0.0,0.0,62,0.00,,---,0.00,VWS V14.01,2013-03-16 02:58:00,
2013-03-15 22:59:00,51.4,38.8,29.88,WNW,285,0.0,5.0,62,0.00,,---,0.00,VWS V14.01,2013-03-16 02:59:00,
2013-03-15 23:00:00,51.6,39.0,29.88,WNW,285,0.0,5.0,62,0.00,,---,0.00,VWS V14.01,2013-03-16 03:00:00,
2013-03-15 23:01:00,51.6,39.0,29.88,WNW,285,0.0,2.0,62,0.00,,---,0.00,VWS V14.01,2013-03-16 03:01:00,
2013-03-15 23:03:00,49.8,37.3,29.91,WNW,285,0.0,0.0,62,0.00,,---,0.00,VWS V14.01,2013-03-16 03:03:00,
2013-03-15 23:08:00,49.8,37.7,29.91,WNW,285,0.0,0.0,63,0.00,,---,0.00,VWS V14.01,2013-03-16 03:08:00,
2013-03-15 23:13:00,49.8,38.1,29.91,WNW,285,0.0,0.0,64,0.00,,---,0.00,VWS V14.01,2013-03-16 03:13:00,
2013-03-15 23:18:00,49.9,38.2,29.89,WNW,285,0.0,0.0,64,0.00,,---,0.00,VWS V14.01,2013-03-16 03:18:00,
2013-03-15 23:23:00,49.9,38.2,29.89,WNW,285,0.0,0.0,64,0.00,,---,0.00,VWS V14.01,2013-03-16 03:23:00,
2013-03-15 23:28:00,50.1,38.4,29.89,WNW,285,0.0,0.0,64,0.00,,---,0.00,VWS V14.01,2013-03-16 03:28:00,
2013-03-15 23:33:00,50.2,38.5,29.89,WNW,285,0.0,0.0,64,0.00,,---,0.00,VWS V14.01,2013-03-16 03:33:00,
2013-03-15 23:38:00,50.2,38.1,29.89,WNW,285,0.0,0.0,63,0.00,,---,0.00,VWS V14.01,2013-03-16 03:38:00,
2013-03-15 23:43:00,50.4,38.3,29.89,WNW,285,0.0,0.0,63,0.00,,---,0.00,VWS V14.01,2013-03-16 03:43:00,
2013-03-15 23:48:00,50.7,39.0,29.88,WNW,285,0.0,0.0,64,0.00,,---,0.00,VWS V14.01,2013-03-16 03:48:00,
2013-03-15 23:53:00,51.0,39.3,29.88,WNW,285,3.0,3.0,64,0.00,,---,0.00,VWS V14.01,2013-03-16 03:53:00,
2013-03-15 23:58:00,51.3,39.2,29.88,WNW,285,0.0,5.0,63,0.00,,---,0.00,VWS V14.01,2013-03-16 03:58:00,